Regional Weather Roundup
Issued by NWS Kansas City/Pleasant Hill, MO

Home | Current Version | Previous Version | Text Only | Print | Product List | Glossary On
Versions: 1 2 3 4 5 6 7 8 9 10 11 12 13 14 15 16 17 18 19 20 21 22 23 24 25 26 27
000
ASUS43 KEAX 270310
RWREAX

WEATHER ROUNDUP FOR EASTERN KANSAS AND NORTHWEST MISSOURI
NATIONAL WEATHER SERVICE KANSAS CITY/PLEASANT HILL MO
900 PM CST SUN FEB 26 2017

KSZ040-057-103>105-MOZ028-029-037-043-270400-
...KANSAS CITY METROPOLITAN AREA...

CITY           SKY/WX    TMP DP  RH WIND       PRES   REMARKS
K.C. INTL      FAIR      38  33  82 S12       30.02R WCI  30
K.C. DOWNTOWN  FAIR      42  36  79 S12       30.04R
LEES SUMMIT    FAIR      38  35  89 S9        30.04R WCI  31
OLATHE - IXD   FAIR      36  33  89 SE7       30.03R WCI  30
OLATHE - OJC   FAIR      36  36 100 S8        30.03R WCI  30
LAWRENCE       FAIR      36  33  89 SE7       30.02R WCI  30

$$

MOZ001>008-011>017-020>025-030>033-038>040-044>046-053-054-270400-
...NORTHERN AND CENTRAL MISSOURI...

CITY           SKY/WX    TMP DP  RH WIND       PRES   REMARKS
ST. JOSEPH     FAIR      38  28  67 S9        30.01R WCI  31
MOSBY          FAIR      39  34  81 SE5       30.04R
WARRENSBURG    CLOUDY    37  34  87 SE6       30.05S WCI  33
WHITEMAN AFB   CLOUDY    39  39 100 S7        30.05R WCI  34
CLINTON        MOCLDY    37  36  93 CALM      30.06S
SEDALIA        CLOUDY    40  36  86 S9        30.07R WCI  34
WARSAW         NOT AVBL
CHILLICOTHE      N/A     40  32  73 S9        30.04R WCI  34
KIRKSVILLE     FAIR      36  24  62 S9        30.04R WCI  29

$$

MOZ041-047>049-056>058-063>065-088>090-097-270400-
...EASTERN AND SOUTHERN MISSOURI...

CITY           SKY/WX    TMP DP  RH WIND       PRES   REMARKS
ST. LOUIS INTL CLOUDY    43  33  68 SW7       30.13R
SPIRIT OF STL  CLOUDY    41  35  79 VRB5      30.13R
COLUMBIA       CLOUDY    38  36  92 SE7       30.08R WCI  33
JEFFERSON CITY CLOUDY    39  36  89 SE6       30.10R WCI  35
ROLLA          CLOUDY    37  35  92 SE3       30.07R
OSAGE BEACH    CLOUDY    38  37  97 E6        30.08R WCI  33
SPRINGFIELD    CLOUDY    45  27  49 SE15      30.02R
BRANSON        CLOUDY    45  27  49 E6        30.04R
JOPLIN         CLOUDY    40  34  79 NE3       30.02R
WEST PLAINS    CLOUDY    46  24  42 SE7       30.08R

$$

IAZ060-094-KSZ022-034>040-054-083-096-NEZ052-066-093-270400-
...KANSAS...SOUTHEAST NEBRASKA AND IOWA...

CITY           SKY/WX    TMP DP  RH WIND       PRES   REMARKS
TOPEKA         FAIR      36  28  73 SE7       30.00R WCI  30
MANHATTAN      FAIR      31  23  72 CALM      30.00R
EMPORIA        FAIR      34  26  72 S8        30.00R WCI  27
CHANUTE        FAIR      38  33  82 E6        30.03R WCI  33
WICHITA        FAIR      41  25  53 E6        29.98S
OMAHA          FAIR      29  23  78 NW7       29.99R WCI  22
LINCOLN        FAIR      29  22  75 CALM      30.00R
FALLS CITY     FAIR      34  22  61 NW3       30.00R
LAMONI         CLOUDY    37  22  54 NE3       30.01R
DES MOINES     FAIR      34  20  56 CALM      30.02R

$$





USA.gov is the U.S. government's official web portal to all federal, state and local government web resources and services.